GFSNE_925_thetae_276.txt.gz
Theta_e
291 291 291 290 290 289 289 289 289 288 288 289 289 289 288 289 288 288 289 289 289 289 289 289 288 289 289 289 289 289 291 292 292 294 298 301 303 305
291 290 290 290 289 289 288 288 288 288 288 288 288 288 288 287 287 287 287 289 289 289 289 288 288 289 288 288 288 288 288 290 291 292 293 298 301 303
290 290 289 289 288 288 287 287 287 287 287 287 287 287 286 286 286 287 287 288 289 289 289 289 289 288 288 287 287 287 286 287 288 289 290 292 297 301
289 289 289 288 287 287 287 286 285 285 286 286 286 286 285 285 286 287 287 288 289 289 289 289 289 289 288 288 287 287 286 286 287 288 289 290 292 297
288 288 288 287 287 286 285 284 284 284 284 285 285 284 284 285 286 287 287 288 287 288 288 288 289 288 289 288 288 286 286 286 286 287 288 288 289 292
287 287 287 287 286 285 284 283 283 283 283 284 283 283 283 285 286 286 286 285 286 287 288 288 287 288 287 287 288 287 286 287 287 287 287 286 286 290
285 286 287 286 286 285 283 283 283 282 282 282 282 282 283 284 285 285 284 285 285 286 287 287 286 286 286 287 287 286 286 287 287 288 289 290 289 289
285 286 286 286 285 285 285 282 282 281 281 281 281 282 283 285 284 283 284 284 285 285 286 286 287 286 286 285 285 285 285 286 286 286 286 288 288 291
285 285 285 285 284 284 283 282 281 281 280 280 281 282 282 283 282 282 283 285 284 285 286 287 287 286 285 285 284 284 285 285 285 285 286 286 287 289
284 284 284 283 283 282 281 280 280 279 279 280 280 280 281 281 281 282 284 285 284 284 285 286 285 286 286 285 285 285 285 285 286 286 286 287 289 291
283 283 283 282 282 281 280 279 278 278 278 279 279 280 279 280 282 284 285 284 284 283 284 284 285 286 286 285 285 285 285 285 286 288 288 288 289 292
282 281 281 282 281 280 279 278 278 277 278 278 277 278 279 281 282 283 283 283 283 283 283 283 284 286 286 285 284 285 285 286 287 287 290 290 291 293
280 280 281 281 281 280 279 278 278 279 278 278 278 279 280 280 281 281 281 282 282 283 283 283 285 286 286 285 285 285 285 286 287 290 291 292 291 291
279 280 280 280 279 278 278 279 279 278 278 279 279 279 279 279 280 278 278 281 282 282 283 283 284 285 285 285 284 285 285 286 288 289 291 291 291 291
279 279 279 278 277 278 279 279 279 279 278 278 278 278 278 277 277 278 279 279 280 281 282 283 283 283 284 285 285 285 285 286 289 288 291 291 291 290
279 278 276 276 278 280 280 280 279 279 278 278 278 277 276 276 277 277 278 278 279 280 281 281 282 282 283 284 285 285 285 287 288 289 291 291 291 291
276 276 276 277 279 280 279 279 279 278 278 278 277 276 276 276 276 276 277 277 278 279 280 280 280 282 282 281 283 286 286 287 288 289 290 290 290 291
276 275 276 278 280 279 279 278 278 278 278 277 277 276 276 276 276 276 276 276 277 278 278 279 280 282 280 280 282 282 283 284 286 287 290 290 291 290
276 277 278 279 279 278 278 278 277 277 276 276 276 276 275 276 275 276 275 276 277 277 277 277 279 281 280 279 280 281 282 283 285 286 287 289 291 291
279 279 279 279 278 278 277 277 277 276 276 276 275 275 275 275 275 275 275 275 275 275 276 277 278 279 279 280 280 281 282 283 284 286 287 287 289 289
279 279 279 278 278 277 277 276 276 276 275 275 274 274 274 274 274 274 274 274 274 275 275 276 277 277 278 279 280 280 281 281 282 283 285 286 287 288
279 279 278 278 277 277 276 276 276 275 275 274 274 273 273 273 272 272 273 273 274 274 275 275 276 277 278 278 279 280 281 281 282 285 286 286 286 283
279 278 278 277 277 276 275 275 275 274 274 273 273 273 272 271 271 271 271 272 272 273 274 274 275 276 276 277 278 279 281 281 282 282 283 286 287 287

GFSNE_925_thetae_279.txt.gz
Theta_e
291 290 290 290 289 289 288 288 288 286 286 287 287 287 287 287 286 286 285 287 287 288 288 289 289 290 289 290 290 290 290 290 290 290 290 292 293 294
290 290 289 289 288 288 287 287 287 286 285 286 286 286 286 286 285 284 285 287 287 288 288 289 289 289 289 290 289 289 289 289 289 289 289 290 291 292
289 289 289 289 288 287 287 286 286 284 284 285 284 285 285 284 282 284 285 286 287 287 287 288 288 288 288 289 289 289 289 289 288 288 288 289 290 291
288 288 288 288 287 287 286 286 284 283 283 283 283 284 283 282 282 283 285 286 286 285 286 286 287 287 288 287 287 288 287 288 288 288 287 287 288 289
287 287 287 287 287 287 286 285 284 283 283 283 283 283 282 281 282 283 284 285 284 284 285 285 285 286 287 287 286 286 285 287 288 287 286 286 287 287
285 285 286 287 287 286 285 285 283 282 282 282 281 281 281 281 282 283 284 283 283 283 284 285 285 286 286 286 286 286 286 286 287 287 287 287 287 287
283 285 286 286 286 285 285 284 283 282 282 281 280 280 280 280 281 283 282 282 282 283 284 284 284 285 285 286 286 286 285 285 285 285 285 285 286 286
283 285 285 285 285 284 284 283 282 281 281 280 280 280 280 280 281 282 281 281 282 283 284 284 283 284 284 284 285 286 286 285 285 284 285 285 285 286
284 284 284 284 283 283 283 282 282 281 279 278 279 279 279 279 280 280 280 280 282 283 284 283 283 283 283 284 284 285 286 285 285 285 285 285 285 285
283 283 283 283 282 282 281 281 280 279 278 278 278 279 279 279 279 279 279 281 283 283 282 282 282 282 282 283 284 285 286 285 285 285 285 286 286 286
281 282 282 282 282 281 281 280 279 278 278 278 278 278 279 279 279 280 281 282 282 281 281 282 282 282 283 283 285 285 285 285 285 285 286 286 286 287
281 281 280 281 281 281 281 280 279 278 278 278 277 277 278 278 279 279 279 280 279 279 280 281 281 282 283 283 284 284 285 285 285 285 285 286 287 287
281 280 279 280 280 280 280 279 278 279 279 279 278 277 277 277 278 277 278 277 278 278 279 280 280 282 282 282 282 283 284 284 284 285 286 287 288 290
281 280 279 279 280 279 278 279 279 280 280 279 278 278 277 277 276 275 276 277 277 278 278 278 280 282 281 282 282 282 283 283 285 285 287 289 290 291
281 279 279 279 277 277 279 280 280 279 279 279 278 278 277 276 276 276 276 275 276 276 277 278 279 281 280 281 282 281 281 285 285 286 287 289 290 290
280 278 277 275 277 278 279 280 279 278 278 278 278 277 276 276 276 275 275 276 276 276 276 277 278 278 278 280 281 280 282 283 283 285 286 288 290 290
278 276 275 276 278 279 279 279 278 278 278 277 277 276 276 276 275 275 275 275 275 275 276 276 276 276 278 280 280 280 280 281 282 283 284 286 289 290
276 276 275 277 278 279 279 278 278 277 277 277 276 276 276 275 275 275 274 275 275 275 275 275 275 276 278 279 279 279 280 280 282 282 284 285 287 289
276 276 276 278 279 279 278 277 277 277 276 276 276 275 275 274 274 273 273 274 274 274 274 274 275 276 278 277 277 279 279 280 281 281 283 285 286 286
276 277 279 279 279 278 277 277 276 276 276 275 275 275 274 273 273 273 273 272 272 272 273 274 274 275 275 276 277 278 279 280 280 282 282 282 284 285
278 278 279 279 278 278 277 276 276 276 275 275 274 274 273 273 272 272 271 270 271 271 272 273 274 274 274 276 277 277 277 278 280 281 282 283 284 285
279 279 279 279 278 277 277 276 275 275 274 274 273 273 272 272 271 270 270 269 269 270 271 272 272 273 274 274 276 276 277 278 279 281 281 281 283 285
279 279 279 278 278 277 276 276 275 274 274 273 272 272 272 271 270 269 268 268 268 268 269 271 272 272 272 273 274 276 276 277 278 280 281 283 284 285

GFSNE_925_thetae_285.txt.gz
Theta_e
290 290 289 289 288 288 287 287 287 285 284 286 285 283 282 282 282 282 281 282 284 284 287 286 286 287 288 288 289 289 290 290 290 291 291 291 292 293
290 289 289 289 288 287 287 286 286 285 283 284 283 283 283 283 282 281 281 281 283 284 286 284 284 285 286 286 287 288 288 289 289 289 290 290 290 291
289 289 289 288 288 287 286 286 286 285 283 283 283 283 283 282 281 280 281 281 282 284 284 284 282 283 284 285 285 285 286 286 287 288 288 289 289 290
288 288 288 287 287 287 286 286 285 284 283 282 282 282 282 281 279 279 280 281 283 283 282 281 282 284 284 284 283 284 285 285 286 285 286 288 288 288
285 285 286 286 286 286 287 286 285 284 283 282 281 281 281 279 278 279 279 280 281 280 280 280 281 283 284 284 284 282 283 285 285 285 285 285 286 286
285 283 283 285 286 286 286 285 284 283 283 282 281 280 279 278 278 278 278 278 279 279 279 280 281 282 282 283 282 282 283 283 284 285 285 285 285 286
286 283 283 285 286 285 285 284 284 283 282 281 279 278 278 278 278 278 278 278 278 279 279 280 280 281 282 282 281 281 283 283 283 284 285 284 284 285
286 284 284 285 285 284 284 283 282 281 280 279 278 277 277 278 278 278 278 278 278 278 279 279 280 282 281 279 280 281 282 282 283 284 282 283 284 285
285 284 283 284 284 283 282 282 281 281 280 279 278 278 278 278 278 278 278 278 278 278 279 279 280 278 278 278 279 281 281 282 283 283 282 282 282 283
285 284 282 283 283 282 282 281 281 281 280 278 278 278 279 278 278 278 277 277 277 276 277 278 277 277 278 277 278 279 280 282 283 282 281 281 282 283
285 284 282 282 282 281 281 281 281 280 279 278 279 279 279 279 278 277 276 276 275 275 275 276 277 276 277 277 277 278 280 282 282 281 282 282 282 283
284 283 282 281 280 280 281 280 280 280 278 279 279 279 278 278 278 277 277 276 275 275 276 275 275 276 276 276 277 277 278 280 280 280 280 281 281 284
284 284 283 282 280 279 280 280 280 277 279 279 279 279 278 277 277 276 275 276 275 275 274 275 275 275 275 276 276 277 278 278 278 277 279 280 282 282
285 285 283 282 281 279 280 278 276 278 279 279 278 278 277 277 276 275 275 275 274 274 274 274 274 274 275 275 276 276 276 276 276 278 279 280 279 280
285 285 283 282 281 280 278 276 278 279 279 278 278 277 277 276 275 275 275 274 273 273 273 273 274 274 274 274 274 274 275 275 276 278 278 278 279 279
285 283 282 281 281 280 276 277 278 279 278 278 277 277 276 276 275 275 274 273 273 273 272 272 273 272 273 273 273 274 274 275 276 278 277 278 278 279
285 282 281 281 280 280 276 278 278 278 278 277 277 276 276 275 275 274 274 273 272 272 272 271 270 270 271 272 273 273 274 275 276 276 277 278 278 279
284 282 282 281 280 278 275 278 279 278 277 277 276 276 275 275 274 274 273 272 271 271 271 270 270 269 270 271 273 273 273 273 274 275 276 277 277 278
283 283 282 281 279 276 276 278 278 278 277 276 276 275 275 274 274 273 272 272 271 270 270 269 269 269 269 270 271 272 273 273 273 276 275 276 277 277
282 282 281 278 276 276 278 279 278 277 277 276 275 275 274 273 273 272 271 271 270 270 269 268 268 268 269 268 269 270 272 273 272 273 274 275 276 277
281 279 278 277 276 277 278 278 278 277 276 276 275 274 274 273 273 272 271 270 270 268 268 268 268 267 267 268 269 271 271 271 272 273 274 275 276 277
279 278 278 277 278 278 278 279 278 277 276 276 275 274 274 274 273 272 271 270 269 268 268 268 267 266 267 267 269 270 270 270 271 273 274 276 277 278
280 280 279 279 279 278 278 278 278 277 276 276 275 275 274 273 272 272 271 270 269 268 267 266 266 266 266 266 268 270 270 270 271 272 274 275 277 278

GFSNE_925_thetae_291.txt.gz
Theta_e
290 290 291 290 290 290 289 289 290 291 291 288 288 286 285 285 284 283 282 282 281 282 284 286 285 285 286 287 288 288 288 289 290 290 291 291 292 293
291 291 291 290 290 289 289 288 288 289 290 288 287 285 285 284 283 282 281 281 281 281 284 284 283 283 285 286 287 287 287 287 288 288 289 290 291 291
290 291 291 290 290 289 289 288 288 288 288 288 286 285 285 284 282 281 281 282 282 281 281 282 281 281 283 285 285 286 286 285 286 286 287 288 289 289
291 290 290 289 289 289 288 288 288 287 287 288 286 285 284 283 281 281 281 281 281 281 280 280 280 281 283 283 284 285 284 283 284 284 285 285 286 287
290 290 290 289 289 288 288 288 288 287 286 286 286 284 283 282 281 281 281 281 281 280 280 280 280 280 280 281 281 283 283 283 282 283 284 283 283 285
289 289 289 288 288 288 287 287 287 287 286 285 285 284 283 281 281 281 282 281 281 281 280 280 280 280 280 280 281 281 281 281 282 283 283 283 282 284
289 288 287 286 285 285 286 287 287 286 286 285 285 284 283 282 282 281 281 281 281 281 281 280 280 280 281 282 281 279 280 280 281 282 283 283 283 284
289 287 286 286 284 283 285 286 286 286 285 285 284 283 282 281 281 281 281 281 282 281 279 280 279 280 280 280 278 278 278 279 280 281 281 282 283 284
288 287 286 285 285 286 286 285 284 284 283 283 283 282 281 281 281 281 281 281 281 280 279 279 279 279 279 279 278 278 278 279 280 281 280 281 283 283
287 287 287 286 285 286 285 285 284 283 282 281 282 281 280 280 280 281 280 280 280 279 278 279 279 279 278 278 278 277 278 278 277 278 279 279 281 282
287 288 287 286 285 284 284 284 283 283 281 281 280 279 279 279 280 281 281 280 280 280 279 278 278 278 278 278 278 277 277 277 277 277 278 279 280 280
288 287 287 286 285 284 283 283 283 283 282 281 281 279 280 280 279 279 280 279 279 279 278 277 277 277 277 277 277 277 277 277 277 277 277 277 277 278
286 287 286 286 285 283 282 283 282 282 281 281 280 280 281 281 280 279 279 278 278 278 278 276 277 276 276 277 276 276 276 277 277 277 277 277 277 277
287 288 288 286 285 284 282 282 281 280 281 281 280 280 281 280 279 279 278 278 277 277 277 276 276 276 276 276 276 276 276 275 275 276 276 276 277 278
288 289 289 287 285 283 282 282 281 281 281 279 279 280 280 279 278 277 277 276 276 276 275 275 275 275 275 275 275 275 275 275 275 275 276 277 276 277
288 288 288 288 285 283 282 281 281 281 279 279 279 280 280 278 278 278 277 277 277 277 276 275 274 274 274 274 274 274 274 274 274 274 275 276 276 277
287 286 285 284 283 283 282 281 280 280 279 277 278 279 279 279 278 278 277 277 277 277 276 275 274 274 273 273 273 273 273 274 274 274 275 275 276 276
286 284 284 284 283 283 281 280 280 280 278 278 278 279 279 279 278 278 277 277 276 276 276 275 274 273 273 273 273 273 273 273 273 273 273 273 274 274
287 285 285 284 283 282 281 281 280 279 279 278 278 279 279 278 277 277 277 276 276 275 275 274 273 273 273 275 273 272 271 271 271 271 272 272 274 275
286 286 285 284 283 282 281 281 280 279 278 277 278 279 278 278 278 277 276 276 275 275 274 274 273 273 272 273 272 271 271 270 270 271 271 272 273 273
285 285 284 284 284 283 281 280 279 278 277 278 278 279 278 277 277 276 276 275 274 274 274 274 273 272 271 271 271 271 270 270 269 269 270 271 273 273
284 283 284 284 283 281 280 278 277 277 278 278 279 278 278 277 276 276 275 275 274 274 273 273 272 271 271 270 271 270 270 270 269 269 270 270 271 273
285 284 283 283 281 279 278 278 278 278 278 278 279 278 278 277 276 275 275 274 274 273 273 272 271 271 270 270 269 269 269 268 269 270 271 272 271 272